| time (UTC) | temp F | wind direction | speed knots | gust knots | rain 1hr in | rain 24hr in | rain mn in | humidity % | barometer mb |
| 20260831170032 | 47 | 147 | 0.9 | 2.6 | 0.00 | 0.00 | 0.00 | 94 | 1025.8 |
| 20260831165019 | 48 | 174 | 0.9 | 2.6 | 0.00 | 0.00 | 0.00 | 94 | 1025.9 |
| 20260831164028 | 48 | 181 | 0.9 | 1.7 | 0.00 | 0.00 | 0.00 | 94 | 1026.1 |
| 20260831163016 | 48 | 176 | 1.7 | 2.6 | 0.00 | 0.00 | 0.00 | 93 | 1026.2 |
| 20260831162025 | 49 | 180 | 1.7 | 2.6 | 0.00 | 0.00 | 0.00 | 92 | 1026.3 |
| 20260831161032 | 49 | 182 | 0.9 | 2.6 | 0.00 | 0.00 | 0.00 | 89 | 1026.4 |
| 20260831160021 | 50 | 177 | 0.9 | 2.6 | 0.00 | 0.00 | 0.00 | 89 | 1026.6 |
| 20260831155027 | 50 | 180 | 0.9 | 1.7 | 0.00 | 0.00 | 0.00 | 88 | 1026.7 |
| 20260831154035 | 50 | 180 | 1.7 | 3.5 | 0.00 | 0.00 | 0.00 | 89 | 1026.7 |
| 20260831153022 | 51 | 181 | 1.7 | 3.5 | 0.00 | 0.00 | 0.00 | 91 | 1027.0 |
| 20260831152038 | 50 | 178 | 0.9 | 2.6 | 0.00 | 0.00 | 0.00 | 90 | 1026.9 |
| 20260831151018 | 50 | 180 | 1.7 | 3.5 | 0.00 | 0.00 | 0.00 | 90 | 1027.1 |
| 20260831150025 | 51 | 123 | 0.9 | 1.7 | 0.00 | 0.00 | 0.00 | 89 | 1027.2 |
| 20260831145033 | 51 | 178 | 2.6 | 3.5 | 0.00 | 0.00 | 0.00 | 91 | 1027.2 |
| 20260831144020 | 51 | 178 | 2.6 | 4.3 | 0.00 | 0.00 | 0.00 | 92 | 1027.4 |
| 20260831143037 | 50 | 178 | 1.7 | 4.3 | 0.00 | 0.00 | 0.00 | 90 | 1027.3 |
| 20260831142017 | 51 | 156 | 0.9 | 3.5 | 0.00 | 0.00 | 0.00 | 90 | 1027.4 |
| 20260831141022 | 52 | 136 | 0.9 | 2.6 | 0.00 | 0.00 | 0.00 | 86 | 1027.4 |
| 20260831140029 | 53 | 183 | 1.7 | 3.5 | 0.00 | 0.00 | 0.00 | 86 | 1027.3 |
| 20260831134026 | 54 | 175 | 1.7 | 3.5 | 0.00 | 0.00 | 0.00 | 84 | 1027.4 |
| 20260831133032 | 55 | 170 | 1.7 | 3.5 | 0.00 | 0.00 | 0.00 | 82 | 1027.5 |
| 20260831132024 | 55 | 146 | 1.7 | 3.5 | 0.00 | 0.00 | 0.00 | 81 | 1027.6 |
| 20260831131033 | 54 | 117 | 1.7 | 5.2 | 0.00 | 0.00 | 0.00 | 84 | 1027.8 |
| 20260831130030 | 53 | 18 | 0.0 | 2.6 | 0.00 | 0.00 | 0.00 | 83 | 1028.0 |
| 20260831125018 | 56 | 4 | 0.9 | 1.7 | 0.00 | 0.00 | 0.00 | 77 | 1028.0 |
| 20260831124024 | 56 | 0.0 | 0.9 | 0.00 | 0.00 | 0.00 | 78 | 1028.1 | |
| 20260831123535 | 57 | 214 | 0.0 | 1.7 | 0.00 | 0.00 | 0.00 | 77 | 1028.1 |
| 20260831122543 | 57 | 0.0 | 0.9 | 0.00 | 0.00 | 0.00 | 76 | 1028.1 | |
| 20260831121521 | 57 | 0.0 | 0.0 | 0.00 | 0.00 | 0.00 | 75 | 1028.2 | |
| 20260831120529 | 58 | 198 | 0.0 | 0.9 | 0.00 | 0.00 | 0.00 | 74 | 1028.2 |
| 20260831115536 | 59 | 0.0 | 0.0 | 0.00 | 0.00 | 0.00 | 72 | 1028.3 | |
| 20260831114529 | 59 | 0.0 | 0.0 | 0.00 | 0.00 | 0.00 | 71 | 1028.3 | |
| 20260831113537 | 60 | 225 | 0.9 | 2.6 | 0.00 | 0.00 | 0.00 | 71 | 1028.4 |
| 20260831112518 | 59 | 0.0 | 0.0 | 0.00 | 0.00 | 0.00 | 71 | 1028.5 | |
| 20260831111525 | 59 | 0.0 | 0.0 | 0.00 | 0.00 | 0.00 | 73 | 1028.5 | |
| 20260831110532 | 59 | 0.0 | 0.0 | 0.00 | 0.00 | 0.00 | 73 | 1028.3 | |
| 20260831105518 | 59 | 0.0 | 0.0 | 0.00 | 0.00 | 0.00 | 74 | 1028.5 | |
| 20260831104524 | 60 | 0.0 | 0.0 | 0.00 | 0.00 | 0.00 | 71 | 1028.5 | |
| 20260831103532 | 60 | 331 | 0.0 | 0.9 | 0.00 | 0.00 | 0.00 | 71 | 1028.5 |
| 20260831102520 | 60 | 0.0 | 0.0 | 0.00 | 0.00 | 0.00 | 71 | 1028.4 | |
| 20260831101531 | 61 | 63 | 0.0 | 1.7 | 0.00 | 0.00 | 0.00 | 68 | 1028.4 |
| 20260831100523 | 62 | 0.0 | 0.9 | 0.00 | 0.00 | 0.00 | 66 | 1028.2 | |
| 20260831095040 | 63 | 214 | 0.0 | 1.7 | 0.00 | 0.00 | 0.00 | 65 | 1028.3 |
| 20260831094020 | 62 | 229 | 0.9 | 2.6 | 0.00 | 0.00 | 0.00 | 66 | 1028.2 |
| 20260831093026 | 62 | 257 | 0.9 | 1.7 | 0.00 | 0.00 | 0.00 | 67 | 1028.3 |
| 20260831091532 | 62 | 0.0 | 0.9 | 0.00 | 0.00 | 0.00 | 69 | 1028.3 | |
| 20260831090519 | 62 | 208 | 0.0 | 0.9 | 0.00 | 0.00 | 0.00 | 69 | 1028.3 |
| 20260831085521 | 62 | 0.0 | 1.7 | 0.00 | 0.00 | 0.00 | 69 | 1028.2 | |
| 20260831084527 | 62 | 281 | 0.0 | 1.7 | 0.00 | 0.00 | 0.00 | 68 | 1028.2 |
| 20260831083532 | 63 | 172 | 0.0 | 1.7 | 0.00 | 0.00 | 0.00 | 67 | 1028.1 |
| 20260831082518 | 63 | 155 | 0.0 | 1.7 | 0.00 | 0.00 | 0.00 | 67 | 1028.2 |
| 20260831081524 | 64 | 350 | 0.9 | 2.6 | 0.00 | 0.00 | 0.00 | 65 | 1028.1 |
| 20260831080530 | 65 | 355 | 2.6 | 4.3 | 0.00 | 0.00 | 0.00 | 64 | 1028.0 |
| 20260831075535 | 65 | 352 | 2.6 | 5.2 | 0.00 | 0.00 | 0.00 | 63 | 1027.8 |
| 20260831074518 | 66 | 341 | 3.5 | 7.8 | 0.00 | 0.00 | 0.00 | 61 | 1027.9 |
| 20260831073530 | 67 | 337 | 3.5 | 7.8 | 0.00 | 0.00 | 0.00 | 59 | 1027.8 |
| 20260831072529 | 67 | 340 | 4.3 | 7.0 | 0.00 | 0.00 | 0.00 | 56 | 1027.8 |
| 20260831071533 | 68 | 342 | 4.3 | 8.7 | 0.00 | 0.00 | 0.00 | 54 | 1027.7 |
| 20260831070527 | 68 | 336 | 5.2 | 11.3 | 0.00 | 0.00 | 0.00 | 53 | 1027.9 |
| 20260831065525 | 69 | 325 | 6.1 | 9.6 | 0.00 | 0.00 | 0.00 | 50 | 1027.9 |
| 20260831064531 | 69 | 338 | 4.3 | 7.8 | 0.00 | 0.00 | 0.00 | 49 | 1027.9 |
| 20260831063547 | 69 | 326 | 5.2 | 9.6 | 0.00 | 0.00 | 0.00 | 49 | 1028.0 |
| 20260831062536 | 69 | 324 | 5.2 | 7.8 | 0.00 | 0.00 | 0.00 | 50 | 1027.8 |
| 20260831061522 | 70 | 327 | 5.2 | 9.6 | 0.00 | 0.00 | 0.00 | 47 | 1027.9 |
| 20260831060532 | 69 | 332 | 6.1 | 11.3 | 0.00 | 0.00 | 0.00 | 43 | 1027.9 |
| 20260831055535 | 70 | 334 | 6.1 | 11.3 | 0.00 | 0.00 | 0.00 | 38 | 1027.9 |
| 20260831054534 | 70 | 359 | 4.3 | 8.7 | 0.00 | 0.00 | 0.00 | 35 | 1027.8 |
| 20260831053518 | 70 | 346 | 3.5 | 7.0 | 0.00 | 0.00 | 0.00 | 40 | 1027.9 |
| 20260831052530 | 70 | 348 | 4.3 | 9.6 | 0.00 | 0.00 | 0.00 | 41 | 1028.1 |
| 20260831051529 | 70 | 357 | 4.3 | 8.7 | 0.00 | 0.00 | 0.00 | 41 | 1028.2 |
| 20260831050537 | 70 | 0 | 4.3 | 7.8 | 0.00 | 0.00 | 0.00 | 38 | 1028.2 |
| 20260831045523 | 71 | 342 | 5.2 | 9.6 | 0.00 | 0.00 | 0.00 | 36 | 1028.2 |
| 20260831044537 | 70 | 339 | 3.5 | 7.8 | 0.00 | 0.00 | 0.00 | 37 | 1028.2 |
| 20260831043542 | 71 | 324 | 6.1 | 9.6 | 0.00 | 0.00 | 0.00 | 39 | 1028.3 |
| 20260831042521 | 70 | 345 | 3.5 | 7.0 | 0.00 | 0.00 | 0.00 | 42 | 1028.4 |
| 20260831041523 | 70 | 330 | 6.1 | 11.3 | 0.00 | 0.00 | 0.00 | 41 | 1028.4 |
| 20260831040530 | 70 | 329 | 5.2 | 9.6 | 0.00 | 0.00 | 0.00 | 40 | 1028.4 |
| 20260831035531 | 70 | 341 | 4.3 | 7.8 | 0.00 | 0.00 | 0.00 | 42 | 1028.5 |
| 20260831034535 | 70 | 327 | 5.2 | 11.3 | 0.00 | 0.00 | 0.00 | 40 | 1028.5 |
| 20260831033519 | 70 | 337 | 5.2 | 8.7 | 0.00 | 0.00 | 0.00 | 41 | 1028.7 |
| 20260831032522 | 69 | 334 | 4.3 | 8.7 | 0.00 | 0.00 | 0.00 | 43 | 1028.7 |
| 20260831031534 | 70 | 331 | 6.1 | 10.4 | 0.00 | 0.00 | 0.00 | 45 | 1029.1 |
| 20260831030535 | 69 | 329 | 5.2 | 8.7 | 0.00 | 0.00 | 0.00 | 45 | 1029.1 |
| 20260831025534 | 69 | 343 | 4.3 | 7.0 | 0.00 | 0.00 | 0.00 | 45 | 1029.1 |
| 20260831024525 | 69 | 342 | 3.5 | 8.7 | 0.00 | 0.00 | 0.00 | 44 | 1029.3 |
| 20260831023531 | 69 | 357 | 3.5 | 5.2 | 0.00 | 0.00 | 0.00 | 42 | 1029.5 |
| 20260831022531 | 68 | 347 | 3.5 | 6.1 | 0.00 | 0.00 | 0.00 | 39 | 1029.6 |
| 20260831021536 | 69 | 330 | 4.3 | 7.8 | 0.00 | 0.00 | 0.00 | 41 | 1029.8 |
| 20260831020519 | 68 | 329 | 3.5 | 7.8 | 0.00 | 0.00 | 0.00 | 43 | 1029.8 |
| 20260831015523 | 68 | 318 | 1.7 | 4.3 | 0.00 | 0.00 | 0.00 | 44 | 1029.9 |
| 20260831014529 | 66 | 278 | 0.9 | 2.6 | 0.00 | 0.00 | 0.00 | 47 | 1030.0 |
| 20260831013535 | 66 | 301 | 2.6 | 5.2 | 0.00 | 0.00 | 0.00 | 46 | 1030.2 |
| 20260831012520 | 65 | 301 | 1.7 | 4.3 | 0.00 | 0.00 | 0.00 | 49 | 1030.4 |
| 20260831011525 | 63 | 286 | 0.9 | 1.7 | 0.00 | 0.00 | 0.00 | 52 | 1030.4 |
| 20260831010535 | 62 | 289 | 2.6 | 3.5 | 0.00 | 0.00 | 0.00 | 57 | 1030.6 |
| 20260831005533 | 61 | 268 | 1.7 | 4.3 | 0.00 | 0.00 | 0.00 | 58 | 1030.7 |
| 20260831004517 | 60 | 206 | 1.7 | 3.5 | 0.00 | 0.00 | 0.00 | 59 | 1030.8 |
| 20260831003523 | 59 | 197 | 2.6 | 3.5 | 0.00 | 0.00 | 0.00 | 62 | 1030.9 |
| 20260831002534 | 59 | 191 | 2.6 | 5.2 | 0.00 | 0.00 | 0.00 | 63 | 1030.9 |
| 20260831001540 | 57 | 211 | 1.7 | 5.2 | 0.00 | 0.00 | 0.00 | 64 | 1031.1 |
| 20260831000517 | 56 | 194 | 2.6 | 3.5 | 0.00 | 0.00 | 0.00 | 65 | 1031.1 |
| 20260830235525 | 56 | 184 | 3.5 | 5.2 | 0.00 | 0.00 | 0.00 | 63 | 1031.1 |
| 20260830234528 | 55 | 195 | 2.6 | 4.3 | 0.00 | 0.00 | 0.00 | 63 | 1031.2 |
| 20260830233534 | 54 | 187 | 2.6 | 4.3 | 0.00 | 0.00 | 0.00 | 65 | 1031.2 |
| 20260830232518 | 54 | 174 | 3.5 | 6.1 | 0.00 | 0.00 | 0.00 | 65 | 1031.3 |
| 20260830231524 | 53 | 167 | 3.5 | 5.2 | 0.00 | 0.00 | 0.00 | 67 | 1031.4 |
| 20260830230529 | 53 | 163 | 3.5 | 5.2 | 0.00 | 0.00 | 0.00 | 68 | 1031.3 |
| 20260830225534 | 52 | 169 | 2.6 | 5.2 | 0.00 | 0.00 | 0.00 | 70 | 1031.3 |
| 20260830224519 | 52 | 188 | 1.7 | 3.5 | 0.00 | 0.00 | 0.00 | 74 | 1031.3 |
| 20260830223534 | 50 | 171 | 2.6 | 4.3 | 0.00 | 0.00 | 0.00 | 79 | 1031.3 |
| 20260830222518 | 50 | 190 | 2.6 | 3.5 | 0.00 | 0.00 | 0.00 | 82 | 1031.3 |
| 20260830221522 | 49 | 176 | 1.7 | 3.5 | 0.00 | 0.00 | 0.00 | 82 | 1031.2 |
| 20260830220529 | 48 | 169 | 1.7 | 3.5 | 0.00 | 0.00 | 0.00 | 85 | 1031.0 |
| 20260830215548 | 46 | 172 | 1.7 | 3.5 | 0.00 | 0.00 | 0.00 | 90 | 1031.1 |
| 20260830214520 | 45 | 173 | 2.6 | 3.5 | 0.00 | 0.00 | 0.00 | 93 | 1031.0 |
| 20260830213523 | 44 | 181 | 1.7 | 2.6 | 0.00 | 0.00 | 0.00 | 93 | 1031.0 |
| 20260830212528 | 43 | 172 | 1.7 | 3.5 | 0.00 | 0.00 | 0.00 | 92 | 1030.8 |
| 20260830211533 | 43 | 182 | 0.9 | 2.6 | 0.00 | 0.00 | 0.00 | 92 | 1030.8 |
| 20260830210518 | 43 | 267 | 0.0 | 1.7 | 0.00 | 0.00 | 0.00 | 93 | 1030.7 |
| 20260830205524 | 43 | 209 | 0.9 | 1.7 | 0.00 | 0.00 | 0.00 | 93 | 1030.7 |
| 20260830204528 | 43 | 189 | 0.0 | 1.7 | 0.00 | 0.00 | 0.00 | 93 | 1030.5 |
| 20260830203534 | 43 | 171 | 0.9 | 2.6 | 0.00 | 0.00 | 0.00 | 93 | 1030.4 |
| 20260830202518 | 43 | 115 | 0.0 | 1.7 | 0.00 | 0.00 | 0.00 | 93 | 1030.3 |
| 20260830201530 | 43 | 84 | 0.0 | 0.9 | 0.00 | 0.00 | 0.00 | 93 | 1030.1 |
| 20260830200528 | 42 | 37 | 0.9 | 1.7 | 0.00 | 0.00 | 0.00 | 93 | 1030.1 |
| 20260830195533 | 42 | 94 | 0.9 | 2.6 | 0.00 | 0.00 | 0.00 | 94 | 1029.9 |
| 20260830194518 | 42 | 145 | 1.7 | 3.5 | 0.00 | 0.00 | 0.00 | 95 | 1029.8 |
| 20260830193531 | 43 | 156 | 3.5 | 4.3 | 0.00 | 0.00 | 0.00 | 96 | 1029.7 |
| 20260830192530 | 43 | 172 | 1.7 | 2.6 | 0.00 | 0.00 | 0.00 | 95 | 1029.6 |
| 20260830191536 | 44 | 177 | 1.7 | 3.5 | 0.00 | 0.00 | 0.00 | 94 | 1029.6 |
| 20260830190520 | 45 | 164 | 1.7 | 3.5 | 0.00 | 0.00 | 0.00 | 93 | 1029.5 |
| 20260830185528 | 46 | 85 | 0.0 | 1.7 | 0.00 | 0.00 | 0.00 | 88 | 1029.3 |
| 20260830184532 | 45 | 71 | 1.7 | 3.5 | 0.00 | 0.00 | 0.00 | 95 | 1029.2 |
| 20260830183536 | 45 | 80 | 0.9 | 1.7 | 0.00 | 0.00 | 0.00 | 95 | 1029.2 |
| 20260830182522 | 45 | 84 | 0.0 | 1.7 | 0.00 | 0.00 | 0.00 | 95 | 1029.3 |
| 20260830181525 | 45 | 138 | 0.9 | 1.7 | 0.00 | 0.00 | 0.00 | 94 | 1029.4 |
| 20260830180534 | 46 | 131 | 0.9 | 1.7 | 0.00 | 0.00 | 0.00 | 94 | 1029.3 |
| 20260830175532 | 46 | 105 | 0.9 | 2.6 | 0.00 | 0.00 | 0.00 | 95 | 1029.0 |
| 20260830174516 | 46 | 73 | 1.7 | 2.6 | 0.00 | 0.00 | 0.00 | 96 | 1028.9 |
| 20260830173521 | 46 | 33 | 2.6 | 3.5 | 0.00 | 0.00 | 0.00 | 96 | 1029.0 |
| 20260830172524 | 46 | 62 | 0.9 | 3.5 | 0.00 | 0.00 | 0.00 | 96 | 1029.0 |
| 20260830171530 | 46 | 136 | 1.7 | 3.5 | 0.00 | 0.00 | 0.00 | 96 | 1029.1 |
| 20260830170534 | 47 | 41 | 0.9 | 2.6 | 0.00 | 0.00 | 0.00 | 95 | 1029.1 |